Time,TemperatureF,DewpointF,PressureIn,WindDirection,WindDirectionDegrees,WindSpeedMPH,WindSpeedGustMPH,Humidity,HourlyPrecipIn,Conditions,Clouds,dailyrainin,SoftwareType,DateUTC
2013-11-07 00:01:00,48.7,37.5,30.14,WSW,245,4.0,8.0,65,0.00,CLR,CLR,0.00,WeatherDisplay:10.34,2013-11-07 05:01:00,
2013-11-07 00:02:00,48.9,37.7,30.14,NNE,16,4.0,5.0,65,0.00,CLR,CLR,0.00,WeatherDisplay:10.34,2013-11-07 05:02:00,
2013-11-07 00:03:00,48.9,37.7,30.14,NNE,16,0.0,3.0,65,0.00,CLR,CLR,0.00,WeatherDisplay:10.34,2013-11-07 05:03:00,
2013-11-07 00:05:00,48.9,37.7,30.14,SW,215,4.0,5.0,65,0.00,CLR,CLR,0.00,WeatherDisplay:10.34,2013-11-07 05:05:00,
2013-11-07 00:07:00,48.9,37.7,30.14,West,278,4.0,7.0,65,0.00,CLR,CLR,0.00,WeatherDisplay:10.34,2013-11-07 05:07:00,
2013-11-07 00:12:00,49.1,37.8,30.14,WNW,299,0.0,3.0,65,0.00,CLR,CLR,0.00,WeatherDisplay:10.34,2013-11-07 05:12:00,
2013-11-07 00:13:00,49.1,37.8,30.14,WSW,252,3.0,5.0,65,0.00,CLR,CLR,0.00,WeatherDisplay:10.34,2013-11-07 05:13:00,
2013-11-07 00:18:00,49.1,37.8,30.14,West,269,3.0,7.0,65,0.00,CLR,CLR,0.00,WeatherDisplay:10.34,2013-11-07 05:18:00,
2013-11-07 00:23:00,49.1,37.8,30.14,West,265,4.0,7.0,65,0.00,CLR,CLR,0.00,WeatherDisplay:10.34,2013-11-07 05:23:00,
2013-11-07 00:28:00,49.1,37.8,30.11,West,261,4.0,9.0,65,0.00,CLR,CLR,0.00,WeatherDisplay:10.34,2013-11-07 05:28:00,
2013-11-07 00:33:00,49.1,37.8,30.11,West,269,3.0,3.0,65,0.00,CLR,CLR,0.00,WeatherDisplay:10.34,2013-11-07 05:33:00,
2013-11-07 00:38:00,49.3,38.4,30.11,WSW,246,4.0,7.0,66,0.00,CLR,CLR,0.00,WeatherDisplay:10.34,2013-11-07 05:38:00,
2013-11-07 00:43:00,49.3,38.4,30.11,WSW,237,4.0,5.0,66,0.00,CLR,CLR,0.00,WeatherDisplay:10.34,2013-11-07 05:43:00,
2013-11-07 00:48:00,49.3,38.0,30.11,SW,234,5.0,7.0,65,0.00,CLR,CLR,0.00,WeatherDisplay:10.34,2013-11-07 05:48:00,
2013-11-07 00:53:00,49.3,38.0,30.11,North,3,4.0,4.0,65,0.00,CLR,CLR,0.00,WeatherDisplay:10.34,2013-11-07 05:53:00,
2013-11-07 00:58:00,49.3,38.4,30.11,SW,236,5.0,10.0,66,0.00,CLR,CLR,0.00,WeatherDisplay:10.34,2013-11-07 05:58:00,
2013-11-07 01:03:00,49.5,39.0,30.11,WNW,290,6.0,6.0,67,0.00,CLR,CLR,0.00,WeatherDisplay:10.34,2013-11-07 06:03:00,
2013-11-07 01:08:00,49.8,39.7,30.11,WSW,252,4.0,6.0,68,0.00,CLR,CLR,0.00,WeatherDisplay:10.34,2013-11-07 06:08:00,
2013-11-07 01:13:00,49.8,39.7,30.11,West,273,4.0,7.0,68,0.00,CLR,CLR,0.00,WeatherDisplay:10.34,2013-11-07 06:13:00,
2013-11-07 01:18:00,50.0,39.8,30.10,SSW,208,5.0,7.0,68,0.00,CLR,CLR,0.00,WeatherDisplay:10.34,2013-11-07 06:18:00,
2013-11-07 01:23:00,50.2,40.0,30.10,WNW,282,3.0,10.0,68,0.00,CLR,CLR,0.00,WeatherDisplay:10.34,2013-11-07 06:23:00,
2013-11-07 01:28:00,50.2,40.0,30.07,South,181,5.0,6.0,68,0.00,CLR,CLR,0.00,WeatherDisplay:10.34,2013-11-07 06:28:00,
2013-11-07 01:33:00,50.2,40.0,30.07,WSW,247,3.0,5.0,68,0.00,CLR,CLR,0.00,WeatherDisplay:10.34,2013-11-07 06:33:00,
2013-11-07 01:38:00,50.2,40.0,30.07,West,273,5.0,10.0,68,0.00,CLR,CLR,0.00,WeatherDisplay:10.34,2013-11-07 06:38:00,
2013-11-07 01:43:00,50.4,40.6,30.07,West,273,3.0,12.0,69,0.00,CLR,CLR,0.00,WeatherDisplay:10.34,2013-11-07 06:43:00,
2013-11-07 01:48:00,50.7,41.3,30.07,SW,236,3.0,7.0,70,0.00,CLR,CLR,0.00,WeatherDisplay:10.34,2013-11-07 06:48:00,
2013-11-07 01:53:00,50.9,41.5,30.07,NE,49,3.0,6.0,70,0.00,CLR,CLR,0.00,WeatherDisplay:10.34,2013-11-07 06:53:00,
2013-11-07 01:58:00,51.1,41.3,30.07,SW,231,0.0,5.0,69,0.00,CLR,CLR,0.00,WeatherDisplay:10.34,2013-11-07 06:58:00,
2013-11-07 02:03:00,51.1,41.3,30.07,WSW,253,4.0,9.0,69,0.00,CLR,CLR,0.00,WeatherDisplay:10.34,2013-11-07 07:03:00,
2013-11-07 02:08:00,51.4,41.6,30.07,NW,309,4.0,7.0,69,0.00,CLR,CLR,0.00,WeatherDisplay:10.34,2013-11-07 07:08:00,
2013-11-07 02:13:00,51.6,41.8,30.07,WSW,240,6.0,14.0,69,0.00,CLR,CLR,0.00,WeatherDisplay:10.34,2013-11-07 07:13:00,
2013-11-07 02:18:00,51.6,41.4,30.07,West,267,4.0,9.0,68,0.00,CLR,CLR,0.00,WeatherDisplay:10.34,2013-11-07 07:18:00,
2013-11-07 02:23:00,51.8,41.6,30.07,SW,233,5.0,9.0,68,0.00,CLR,CLR,0.00,WeatherDisplay:10.34,2013-11-07 07:23:00,
2013-11-07 02:28:00,51.8,41.2,30.04,SW,225,4.0,6.0,67,0.00,CLR,CLR,0.00,WeatherDisplay:10.34,2013-11-07 07:28:00,
2013-11-07 02:33:00,51.8,41.6,30.04,WSW,253,5.0,9.0,68,0.00,CLR,CLR,0.00,WeatherDisplay:10.34,2013-11-07 07:33:00,
2013-11-07 02:38:00,51.8,41.6,30.04,SSW,196,4.0,5.0,68,0.00,CLR,CLR,0.00,WeatherDisplay:10.34,2013-11-07 07:38:00,
2013-11-07 02:43:00,51.8,41.6,30.04,SW,225,4.0,6.0,68,0.00,CLR,CLR,0.00,WeatherDisplay:10.34,2013-11-07 07:43:00,
2013-11-07 02:48:00,51.8,41.6,30.04,SSW,210,3.0,10.0,68,0.00,CLR,CLR,0.00,WeatherDisplay:10.34,2013-11-07 07:48:00,
2013-11-07 02:53:00,51.8,41.6,30.04,WNW,290,6.0,9.0,68,0.00,CLR,CLR,0.00,WeatherDisplay:10.34,2013-11-07 07:53:00,
2013-11-07 02:58:00,51.8,41.6,30.04,SSW,213,4.0,6.0,68,0.00,CLR,CLR,0.00,WeatherDisplay:10.34,2013-11-07 07:58:00,
2013-11-07 03:03:00,51.8,41.6,30.04,SSW,200,4.0,5.0,68,0.00,CLR,CLR,0.00,WeatherDisplay:10.34,2013-11-07 08:03:00,
2013-11-07 03:08:00,51.8,41.9,30.04,WSW,247,6.0,7.0,69,0.00,BKN,BKN,0.00,WeatherDisplay:10.34,2013-11-07 08:08:00,
2013-11-07 03:13:00,52.0,42.1,30.01,West,261,5.0,8.0,69,0.00,BKN,BKN,0.00,WeatherDisplay:10.34,2013-11-07 08:13:00,
2013-11-07 03:18:00,52.0,42.1,30.01,WSW,255,4.0,7.0,69,0.00,BKN,BKN,0.00,WeatherDisplay:10.34,2013-11-07 08:18:00,
2013-11-07 03:23:00,52.0,42.1,30.01,WNW,298,5.0,8.0,69,0.00,BKN,BKN,0.00,WeatherDisplay:10.34,2013-11-07 08:23:00,
2013-11-07 03:28:00,52.0,42.1,30.01,WSW,253,5.0,7.0,69,0.00,BKN,BKN,0.00,WeatherDisplay:10.34,2013-11-07 08:28:00,
2013-11-07 03:33:00,52.2,42.3,30.01,WNW,282,6.0,9.0,69,0.00,BKN,BKN,0.00,WeatherDisplay:10.34,2013-11-07 08:33:00,
2013-11-07 03:38:00,52.2,41.9,30.01,SSE,168,6.0,12.0,68,0.00,BKN,BKN,0.00,WeatherDisplay:10.34,2013-11-07 08:38:00,
2013-11-07 03:43:00,52.3,42.1,30.01,West,279,7.0,9.0,68,0.00,BKN,BKN,0.00,WeatherDisplay:10.34,2013-11-07 08:43:00,
2013-11-07 03:48:00,52.3,42.1,30.01,WNW,299,4.0,6.0,68,0.00,BKN,BKN,0.00,WeatherDisplay:10.34,2013-11-07 08:48:00,
2013-11-07 03:53:00,52.3,42.1,30.01,SSW,213,5.0,7.0,68,0.00,BKN,BKN,0.00,WeatherDisplay:10.34,2013-11-07 08:53:00,
2013-11-07 03:58:00,52.5,42.3,30.01,West,281,3.0,8.0,68,0.00,BKN,BKN,0.00,WeatherDisplay:10.34,2013-11-07 08:58:00,
2013-11-07 04:03:00,52.7,42.0,30.01,NE,53,5.0,7.0,67,0.00,BKN,BKN,0.00,WeatherDisplay:10.34,2013-11-07 09:03:00,
2013-11-07 04:08:00,52.9,41.8,30.01,SSE,147,7.0,10.0,66,0.00,BKN,BKN,0.00,WeatherDisplay:10.34,2013-11-07 09:08:00,
2013-11-07 04:13:00,53.1,41.6,30.01,SSW,211,7.0,10.0,65,0.00,BKN,BKN,0.00,WeatherDisplay:10.34,2013-11-07 09:13:00,
2013-11-07 04:18:00,53.1,41.6,30.01,West,267,4.0,7.0,65,0.00,BKN,BKN,0.00,WeatherDisplay:10.34,2013-11-07 09:18:00,
2013-11-07 04:23:00,53.1,41.6,30.01,SW,231,7.0,12.0,65,0.00,BKN,BKN,0.00,WeatherDisplay:10.34,2013-11-07 09:23:00,
2013-11-07 04:28:00,53.1,41.6,30.01,SW,227,5.0,7.0,65,0.00,BKN,BKN,0.00,WeatherDisplay:10.34,2013-11-07 09:28:00,
2013-11-07 04:33:00,53.1,41.6,30.01,WSW,250,5.0,9.0,65,0.00,BKN,BKN,0.00,WeatherDisplay:10.34,2013-11-07 09:33:00,
2013-11-07 04:38:00,53.1,41.6,30.01,SW,233,5.0,8.0,65,0.00,BKN,BKN,0.00,WeatherDisplay:10.34,2013-11-07 09:38:00,
2013-11-07 04:43:00,53.1,41.6,30.01,SSW,200,5.0,8.0,65,0.00,BKN,BKN,0.00,WeatherDisplay:10.34,2013-11-07 09:43:00,
2013-11-07 04:49:00,53.1,41.6,29.98,SW,214,5.0,6.0,65,0.00,BKN,BKN,0.00,WeatherDisplay:10.34,2013-11-07 09:49:00,
2013-11-07 04:54:00,53.1,41.6,29.98,SSW,195,7.0,7.0,65,0.00,BKN,BKN,0.00,WeatherDisplay:10.34,2013-11-07 09:54:00,
2013-11-07 04:59:00,53.2,41.4,29.98,SSE,166,3.0,5.0,64,0.00,BKN,BKN,0.00,WeatherDisplay:10.34,2013-11-07 09:59:00,
2013-11-07 05:04:00,53.2,41.4,29.98,West,259,5.0,9.0,64,0.00,BKN,BKN,0.00,WeatherDisplay:10.34,2013-11-07 10:04:00,
2013-11-07 05:09:00,53.4,41.5,29.98,South,184,4.0,8.0,64,0.00,BKN,BKN,0.00,WeatherDisplay:10.34,2013-11-07 10:09:00,
2013-11-07 05:14:00,53.4,41.5,29.98,SW,234,7.0,14.0,64,0.00,BKN,BKN,0.00,WeatherDisplay:10.34,2013-11-07 10:14:00,
2013-11-07 05:19:00,53.6,41.7,29.98,SW,216,5.0,7.0,64,0.00,BKN,BKN,0.00,WeatherDisplay:10.34,2013-11-07 10:19:00,
2013-11-07 05:24:00,53.6,41.7,29.98,WSW,243,6.0,13.0,64,0.00,BKN,BKN,0.00,WeatherDisplay:10.34,2013-11-07 10:24:00,
2013-11-07 05:29:00,53.8,41.9,29.98,WNW,286,7.0,10.0,64,0.00,BKN,BKN,0.00,WeatherDisplay:10.34,2013-11-07 10:29:00,
2013-11-07 05:34:00,54.0,41.6,29.98,NNW,344,5.0,9.0,63,0.00,BKN,BKN,0.00,WeatherDisplay:10.34,2013-11-07 10:34:00,
2013-11-07 05:39:00,54.1,41.8,29.98,WNW,298,7.0,12.0,63,0.00,BKN,BKN,0.00,WeatherDisplay:10.34,2013-11-07 10:39:00,
2013-11-07 05:44:00,54.3,42.0,29.95,SSW,198,6.0,9.0,63,0.00,BKN,BKN,0.00,WeatherDisplay:10.34,2013-11-07 10:44:00,
2013-11-07 05:49:00,54.3,41.6,29.95,SW,231,8.0,14.0,62,0.00,BKN,BKN,0.00,WeatherDisplay:10.34,2013-11-07 10:49:00,
2013-11-07 05:54:00,54.3,41.6,29.95,West,272,5.0,10.0,62,0.00,BKN,BKN,0.00,WeatherDisplay:10.34,2013-11-07 10:54:00,
2013-11-07 05:59:00,54.1,41.4,29.95,SSW,205,5.0,14.0,62,0.00,BKN,BKN,0.00,WeatherDisplay:10.34,2013-11-07 10:59:00,
2013-11-07 06:04:00,54.1,41.8,29.95,WSW,256,6.0,12.0,63,0.00,BKN,BKN,0.00,WeatherDisplay:10.34,2013-11-07 11:04:00,
2013-11-07 06:09:00,54.1,42.2,29.95,SW,228,4.0,10.0,64,0.00,OVC,OVC,0.00,WeatherDisplay:10.34,2013-11-07 11:09:00,
2013-11-07 06:14:00,54.1,42.2,29.95,WSW,255,5.0,9.0,64,0.00,OVC,OVC,0.00,WeatherDisplay:10.34,2013-11-07 11:14:00,
2013-11-07 06:19:00,54.1,42.6,29.95,SSW,207,8.0,14.0,65,0.00,OVC,OVC,0.00,WeatherDisplay:10.34,2013-11-07 11:19:00,
2013-11-07 06:24:00,54.1,42.6,29.95,WSW,252,6.0,12.0,65,0.00,OVC,OVC,0.00,WeatherDisplay:10.34,2013-11-07 11:24:00,
2013-11-07 06:29:00,54.1,42.6,29.92,NW,323,6.0,7.0,65,0.00,OVC,OVC,0.00,WeatherDisplay:10.34,2013-11-07 11:29:00,
2013-11-07 06:34:00,54.1,42.6,29.92,SW,215,4.0,5.0,65,0.00,OVC,OVC,0.00,WeatherDisplay:10.34,2013-11-07 11:34:00,
2013-11-07 06:35:00,54.1,42.6,29.92,SW,214,4.0,12.0,65,0.00,OVC,OVC,0.00,WeatherDisplay:10.34,2013-11-07 11:35:00,
2013-11-07 06:40:00,54.1,43.0,29.92,West,277,7.0,9.0,66,0.00,OVC,OVC,0.00,WeatherDisplay:10.34,2013-11-07 11:40:00,
2013-11-07 06:45:00,54.1,43.0,29.92,West,271,5.0,8.0,66,0.00,OVC,OVC,0.00,WeatherDisplay:10.34,2013-11-07 11:45:00,
2013-11-07 06:50:00,54.1,43.0,29.92,WNW,300,5.0,7.0,66,0.00,OVC,OVC,0.00,WeatherDisplay:10.34,2013-11-07 11:50:00,
2013-11-07 06:55:00,54.1,43.4,29.92,SSE,167,7.0,9.0,67,0.00,OVC,OVC,0.00,WeatherDisplay:10.34,2013-11-07 11:55:00,
2013-11-07 07:00:00,54.1,43.4,29.92,SE,141,6.0,12.0,67,0.00,OVC,OVC,0.00,WeatherDisplay:10.34,2013-11-07 12:00:00,
2013-11-07 07:05:00,54.3,44.0,29.92,WSW,249,4.0,7.0,68,0.00,OVC,OVC,0.00,WeatherDisplay:10.34,2013-11-07 12:05:00,
2013-11-07 07:10:00,54.3,44.0,29.92,WNW,282,5.0,10.0,68,0.00,OVC,OVC,0.00,WeatherDisplay:10.34,2013-11-07 12:10:00,
2013-11-07 07:15:00,54.5,44.2,29.92,North,4,5.0,12.0,68,0.00,OVC,OVC,0.00,WeatherDisplay:10.34,2013-11-07 12:15:00,
2013-11-07 07:20:00,54.5,44.2,29.92,WSW,254,3.0,8.0,68,0.00,OVC,OVC,0.00,WeatherDisplay:10.34,2013-11-07 12:20:00,
2013-11-07 07:25:00,54.5,44.2,29.92,NW,311,5.0,8.0,68,0.00,OVC,OVC,0.00,WeatherDisplay:10.34,2013-11-07 12:25:00,
2013-11-07 07:30:00,54.7,44.3,29.92,WSW,252,4.0,7.0,68,0.00,OVC,OVC,0.00,WeatherDisplay:10.34,2013-11-07 12:30:00,
2013-11-07 07:35:00,54.7,44.7,29.92,NNE,14,3.0,7.0,69,0.00,OVC,OVC,0.00,WeatherDisplay:10.34,2013-11-07 12:35:00,
2013-11-07 07:40:00,54.7,44.7,29.92,WNW,287,4.0,6.0,69,0.00,OVC,OVC,0.00,WeatherDisplay:10.34,2013-11-07 12:40:00,
2013-11-07 07:45:00,54.7,45.1,29.95,SSW,192,4.0,6.0,70,0.00,OVC,OVC,0.00,WeatherDisplay:10.34,2013-11-07 12:45:00,
2013-11-07 07:50:00,54.7,45.1,29.95,WNW,301,3.0,5.0,70,0.00,OVC,OVC,0.00,WeatherDisplay:10.34,2013-11-07 12:50:00,
2013-11-07 07:55:00,54.5,45.3,29.95,West,280,4.0,7.0,71,0.00,OVC,OVC,0.00,WeatherDisplay:10.34,2013-11-07 12:55:00,
2013-11-07 08:00:00,54.1,45.3,29.92,West,271,0.0,3.0,72,0.00,OVC,OVC,0.00,WeatherDisplay:10.34,2013-11-07 13:00:00,
2013-11-07 08:05:00,54.0,45.9,29.92,WSW,254,5.0,12.0,74,0.00,OVC,OVC,0.00,WeatherDisplay:10.34,2013-11-07 13:05:00,
2013-11-07 08:10:00,53.8,46.4,29.92,WSW,255,3.0,3.0,76,0.00,OVC,OVC,0.00,WeatherDisplay:10.34,2013-11-07 13:10:00,
2013-11-07 08:15:00,53.6,46.6,29.92,WSW,244,4.0,6.0,77,0.00,OVC,OVC,0.00,WeatherDisplay:10.34,2013-11-07 13:15:00,
2013-11-07 08:20:00,53.4,47.4,29.92,SW,228,3.0,3.0,80,0.00,OVC,OVC,0.00,WeatherDisplay:10.34,2013-11-07 13:20:00,
2013-11-07 08:25:00,53.2,47.6,29.92,West,270,0.0,3.0,81,0.00,OVC,OVC,0.00,WeatherDisplay:10.34,2013-11-07 13:25:00,
2013-11-07 08:30:00,53.2,47.9,29.92,WSW,246,4.0,6.0,82,0.00,OVC,OVC,0.00,WeatherDisplay:10.34,2013-11-07 13:30:00,
2013-11-07 08:35:00,53.1,48.4,29.92,WNW,287,4.0,6.0,84,0.00,OVC,OVC,0.00,WeatherDisplay:10.34,2013-11-07 13:35:00,
2013-11-07 08:40:00,53.1,48.7,29.92,WNW,286,0.0,5.0,85,0.00,OVC,OVC,0.00,WeatherDisplay:10.34,2013-11-07 13:40:00,
2013-11-07 08:45:00,53.1,49.0,29.92,WSW,245,3.0,5.0,86,0.00,OVC,OVC,0.00,WeatherDisplay:10.34,2013-11-07 13:45:00,
2013-11-07 08:50:00,53.2,49.5,29.92,West,279,4.0,6.0,87,0.00,OVC,OVC,0.00,WeatherDisplay:10.34,2013-11-07 13:50:00,
2013-11-07 08:55:00,53.2,49.8,29.92,NW,311,3.0,6.0,88,0.00,OVC,OVC,0.00,WeatherDisplay:10.34,2013-11-07 13:55:00,
2013-11-07 09:00:00,53.4,50.0,29.92,South,172,3.0,3.0,88,0.00,OVC,OVC,0.00,WeatherDisplay:10.34,2013-11-07 14:00:00,
2013-11-07 09:05:00,53.4,50.3,29.92,WSW,256,4.0,8.0,89,0.00,OVC,OVC,0.00,WeatherDisplay:10.34,2013-11-07 14:05:00,
2013-11-07 09:10:00,53.4,50.6,29.92,West,263,5.0,7.0,90,0.00,OVC,OVC,0.00,WeatherDisplay:10.34,2013-11-07 14:10:00,
2013-11-07 09:15:00,53.4,50.6,29.92,West,267,0.0,6.0,90,0.00,OVC,OVC,0.00,WeatherDisplay:10.34,2013-11-07 14:15:00,
2013-11-07 09:20:00,53.4,50.6,29.92,WSW,252,3.0,7.0,90,0.00,OVC,OVC,0.00,WeatherDisplay:10.34,2013-11-07 14:20:00,
2013-11-07 09:25:00,53.4,50.9,29.92,SW,233,4.0,6.0,91,0.00,OVC,OVC,0.00,WeatherDisplay:10.34,2013-11-07 14:25:00,
2013-11-07 09:30:00,53.4,50.9,29.92,West,274,3.0,5.0,91,0.00,OVC,OVC,0.00,WeatherDisplay:10.34,2013-11-07 14:30:00,
2013-11-07 09:35:00,53.4,50.9,29.92,NW,322,3.0,7.0,91,0.00,OVC,OVC,0.00,WeatherDisplay:10.34,2013-11-07 14:35:00,
2013-11-07 09:40:00,53.6,51.3,29.92,West,279,0.0,6.0,92,0.00,OVC,OVC,0.00,WeatherDisplay:10.34,2013-11-07 14:40:00,
2013-11-07 09:45:00,53.6,51.3,29.89,WSW,252,3.0,6.0,92,0.00,OVC,OVC,0.00,WeatherDisplay:10.34,2013-11-07 14:45:00,
2013-11-07 09:50:00,53.6,51.3,29.89,West,276,5.0,8.0,92,0.00,OVC,OVC,0.00,WeatherDisplay:10.34,2013-11-07 14:50:00,
2013-11-07 09:55:00,53.6,51.3,29.89,West,277,0.0,3.0,92,0.00,OVC,OVC,0.00,WeatherDisplay:10.34,2013-11-07 14:55:00,
2013-11-07 10:00:00,53.6,51.6,29.89,WSW,237,4.0,7.0,93,0.00,OVC,OVC,0.00,WeatherDisplay:10.34,2013-11-07 15:00:00,
2013-11-07 10:05:00,53.8,51.8,29.89,SW,220,3.0,5.0,93,0.00,OVC,OVC,0.00,WeatherDisplay:10.34,2013-11-07 15:05:00,
2013-11-07 10:10:00,53.8,51.8,29.89,NW,317,5.0,7.0,93,0.00,BKN,BKN,0.00,WeatherDisplay:10.34,2013-11-07 15:10:00,
2013-11-07 10:15:00,53.8,51.8,29.89,NW,318,5.0,8.0,93,0.00,BKN,BKN,0.00,WeatherDisplay:10.34,2013-11-07 15:15:00,
2013-11-07 10:20:00,53.8,51.8,29.89,WSW,256,4.0,9.0,93,0.00,BKN,BKN,0.00,WeatherDisplay:10.34,2013-11-07 15:20:00,
2013-11-07 10:25:00,53.8,51.8,29.89,SSE,151,4.0,8.0,93,0.00,BKN,BKN,0.00,WeatherDisplay:10.34,2013-11-07 15:25:00,
2013-11-07 10:30:00,53.8,51.8,29.89,WSW,253,0.0,0.0,93,0.00,BKN,BKN,0.00,WeatherDisplay:10.34,2013-11-07 15:30:00,
2013-11-07 10:35:00,53.8,51.8,29.89,WNW,286,0.0,3.0,93,0.00,BKN,BKN,0.00,WeatherDisplay:10.34,2013-11-07 15:35:00,
2013-11-07 10:40:00,53.8,51.8,29.89,WSW,250,4.0,8.0,93,0.00,BKN,BKN,0.00,WeatherDisplay:10.34,2013-11-07 15:40:00,
2013-11-07 10:46:00,53.8,51.8,29.89,NE,53,3.0,8.0,93,0.00,BKN,BKN,0.00,WeatherDisplay:10.34,2013-11-07 15:46:00,
2013-11-07 10:51:00,54.0,52.0,29.89,WNW,285,0.0,5.0,93,0.00,BKN,BKN,0.00,WeatherDisplay:10.34,2013-11-07 15:51:00,
2013-11-07 10:56:00,54.0,52.0,29.89,WSW,252,3.0,9.0,93,0.00,BKN,BKN,0.00,WeatherDisplay:10.34,2013-11-07 15:56:00,
2013-11-07 11:01:00,54.0,52.0,29.89,WSW,245,0.0,6.0,93,0.00,BKN,BKN,0.00,WeatherDisplay:10.34,2013-11-07 16:01:00,
2013-11-07 11:06:00,54.0,52.0,29.89,West,260,3.0,9.0,93,0.00,BKN,BKN,0.00,WeatherDisplay:10.34,2013-11-07 16:06:00,
2013-11-07 11:11:00,54.0,52.0,29.89,NNW,340,3.0,5.0,93,0.00,BKN,BKN,0.00,WeatherDisplay:10.34,2013-11-07 16:11:00,
2013-11-07 11:16:00,54.1,52.2,29.86,NNE,21,0.0,6.0,93,0.00,BKN,BKN,0.00,WeatherDisplay:10.34,2013-11-07 16:16:00,
2013-11-07 11:21:00,54.1,52.2,29.86,West,270,7.0,10.0,93,0.00,BKN,BKN,0.00,WeatherDisplay:10.34,2013-11-07 16:21:00,
2013-11-07 11:26:00,54.1,52.2,29.86,West,270,4.0,8.0,93,0.00,BKN,BKN,0.00,WeatherDisplay:10.34,2013-11-07 16:26:00,
2013-11-07 11:31:00,54.1,52.2,29.86,West,267,6.0,10.0,93,0.00,BKN,BKN,0.00,WeatherDisplay:10.34,2013-11-07 16:31:00,
2013-11-07 11:36:00,54.1,52.2,29.86,WNW,293,4.0,10.0,93,0.00,BKN,BKN,0.00,WeatherDisplay:10.34,2013-11-07 16:36:00,
2013-11-07 11:41:00,54.1,52.5,29.86,SSW,208,5.0,9.0,94,0.00,BKN,BKN,0.00,WeatherDisplay:10.34,2013-11-07 16:41:00,
2013-11-07 11:46:00,54.3,52.6,29.86,NW,309,5.0,9.0,94,0.00,BKN,BKN,0.00,WeatherDisplay:10.34,2013-11-07 16:46:00,
2013-11-07 11:51:00,54.3,52.6,29.86,South,186,5.0,7.0,94,0.00,BKN,BKN,0.00,WeatherDisplay:10.34,2013-11-07 16:51:00,
2013-11-07 11:56:00,54.3,52.6,29.86,SW,221,5.0,10.0,94,0.00,BKN,BKN,0.00,WeatherDisplay:10.34,2013-11-07 16:56:00,
2013-11-07 12:01:00,54.3,52.6,29.86,West,278,6.0,10.0,94,0.00,BKN,BKN,0.00,WeatherDisplay:10.34,2013-11-07 17:01:00,
2013-11-07 12:06:00,54.3,52.6,29.86,WSW,242,4.0,13.0,94,0.00,OVC,OVC,0.00,WeatherDisplay:10.34,2013-11-07 17:06:00,
2013-11-07 12:11:00,54.1,52.5,29.86,WSW,246,0.0,7.0,94,0.00,OVC,OVC,0.00,WeatherDisplay:10.34,2013-11-07 17:11:00,
2013-11-07 12:16:00,54.1,52.5,29.86,West,264,7.0,8.0,94,0.00,OVC,OVC,0.00,WeatherDisplay:10.34,2013-11-07 17:16:00,
2013-11-07 12:21:00,54.1,52.5,29.86,WNW,289,4.0,7.0,94,0.00,OVC,OVC,0.00,WeatherDisplay:10.34,2013-11-07 17:21:00,
2013-11-07 12:26:00,54.1,52.5,29.86,WSW,256,6.0,10.0,94,0.00,OVC,OVC,0.00,WeatherDisplay:10.34,2013-11-07 17:26:00,
2013-11-07 12:31:00,53.6,51.3,29.86,WSW,243,7.0,9.0,92,0.00,OVC,OVC,0.00,WeatherDisplay:10.34,2013-11-07 17:31:00,
2013-11-07 12:36:00,53.2,50.1,29.86,SSW,192,3.0,6.0,89,0.00,OVC,OVC,0.00,WeatherDisplay:10.34,2013-11-07 17:36:00,
2013-11-07 12:41:00,52.9,49.1,29.86,SW,232,6.0,9.0,87,0.00,OVC,OVC,0.00,WeatherDisplay:10.34,2013-11-07 17:41:00,
2013-11-07 12:46:00,52.5,48.1,29.83,NNW,346,5.0,9.0,85,0.00,OVC,OVC,0.00,WeatherDisplay:10.34,2013-11-07 17:46:00,
2013-11-07 12:51:00,52.2,47.5,29.83,West,280,5.0,9.0,84,0.00,OVC,OVC,0.00,WeatherDisplay:10.34,2013-11-07 17:51:00,
2013-11-07 12:56:00,52.0,47.3,29.83,ENE,63,4.0,8.0,84,0.00,OVC,OVC,0.00,WeatherDisplay:10.34,2013-11-07 17:56:00,
2013-11-07 12:58:00,52.0,47.3,29.83,WSW,247,4.0,7.0,84,0.00,OVC,OVC,0.00,WeatherDisplay:10.34,2013-11-07 17:58:00,
2013-11-07 13:03:00,51.6,46.6,29.83,SW,227,6.0,6.0,83,0.00,OVC,OVC,0.00,WeatherDisplay:10.34,2013-11-07 18:03:00,
2013-11-07 13:08:00,51.6,46.6,29.83,WSW,252,6.0,9.0,83,0.00,BKN,BKN,0.00,WeatherDisplay:10.34,2013-11-07 18:08:00,
2013-11-07 13:13:00,51.3,46.3,29.83,NNE,33,5.0,6.0,83,0.00,BKN,BKN,0.00,WeatherDisplay:10.34,2013-11-07 18:13:00,
2013-11-07 13:18:00,51.1,46.1,29.83,NNW,335,3.0,6.0,83,0.00,BKN,BKN,0.00,WeatherDisplay:10.34,2013-11-07 18:18:00,
2013-11-07 13:23:00,51.1,46.1,29.83,West,262,5.0,9.0,83,0.00,BKN,BKN,0.00,WeatherDisplay:10.34,2013-11-07 18:23:00,
2013-11-07 13:28:00,50.9,45.9,29.83,West,266,3.0,3.0,83,0.00,BKN,BKN,0.00,WeatherDisplay:10.34,2013-11-07 18:28:00,
2013-11-07 13:33:00,50.7,45.7,29.83,NW,323,6.0,10.0,83,0.00,BKN,BKN,0.00,WeatherDisplay:10.34,2013-11-07 18:33:00,
2013-11-07 13:38:00,50.5,45.2,29.83,NE,37,5.0,7.0,82,0.00,BKN,BKN,0.00,WeatherDisplay:10.34,2013-11-07 18:38:00,
2013-11-07 13:43:00,50.4,45.1,29.83,WNW,294,3.0,9.0,82,0.00,BKN,BKN,0.00,WeatherDisplay:10.34,2013-11-07 18:43:00,
2013-11-07 13:48:00,50.2,44.6,29.83,West,270,4.0,6.0,81,0.00,BKN,BKN,0.00,WeatherDisplay:10.34,2013-11-07 18:48:00,
2013-11-07 13:53:00,50.2,44.6,29.83,West,279,4.0,9.0,81,0.00,BKN,BKN,0.00,WeatherDisplay:10.34,2013-11-07 18:53:00,
2013-11-07 13:58:00,50.0,43.7,29.83,NW,304,4.0,6.0,79,0.00,BKN,BKN,0.00,WeatherDisplay:10.34,2013-11-07 18:58:00,
2013-11-07 14:03:00,49.8,43.2,29.83,WSW,240,5.0,7.0,78,0.00,BKN,BKN,0.00,WeatherDisplay:10.34,2013-11-07 19:03:00,
2013-11-07 14:08:00,49.8,43.2,29.83,WNW,289,3.0,6.0,78,0.00,BKN,BKN,0.00,WeatherDisplay:10.34,2013-11-07 19:08:00,
2013-11-07 14:13:00,49.8,43.6,29.80,WSW,258,4.0,8.0,79,0.00,BKN,BKN,0.00,WeatherDisplay:10.34,2013-11-07 19:13:00,
2013-11-07 14:18:00,49.6,43.1,29.80,North,3,4.0,6.0,78,0.00,BKN,BKN,0.00,WeatherDisplay:10.34,2013-11-07 19:18:00,
2013-11-07 14:23:00,49.8,43.6,29.80,North,11,3.0,5.0,79,0.00,BKN,BKN,0.00,WeatherDisplay:10.34,2013-11-07 19:23:00,
2013-11-07 14:28:00,49.8,43.9,29.83,SW,233,4.0,7.0,80,0.00,BKN,BKN,0.00,WeatherDisplay:10.34,2013-11-07 19:28:00,
2013-11-07 14:33:00,49.8,43.6,29.83,North,351,3.0,6.0,79,0.00,BKN,BKN,0.00,WeatherDisplay:10.34,2013-11-07 19:33:00,
2013-11-07 14:38:00,49.8,43.6,29.83,SSW,212,3.0,5.0,79,0.00,BKN,BKN,0.00,WeatherDisplay:10.34,2013-11-07 19:38:00,
2013-11-07 14:43:00,49.8,43.6,29.83,SW,217,5.0,8.0,79,0.00,BKN,BKN,0.00,WeatherDisplay:10.34,2013-11-07 19:43:00,
2013-11-07 14:48:00,49.6,43.1,29.83,WNW,287,3.0,10.0,78,0.00,BKN,BKN,0.00,WeatherDisplay:10.34,2013-11-07 19:48:00,
2013-11-07 14:53:00,49.6,43.1,29.83,WNW,290,3.0,3.0,78,0.00,BKN,BKN,0.00,WeatherDisplay:10.34,2013-11-07 19:53:00,
2013-11-07 14:58:00,49.6,43.1,29.86,WSW,237,4.0,7.0,78,0.00,BKN,BKN,0.00,WeatherDisplay:10.34,2013-11-07 19:58:00,
2013-11-07 15:03:00,49.5,42.9,29.86,NE,48,4.0,5.0,78,0.00,BKN,BKN,0.00,WeatherDisplay:10.34,2013-11-07 20:03:00,
2013-11-07 15:08:00,49.5,42.5,29.86,North,6,4.0,7.0,77,0.00,OVC,OVC,0.00,WeatherDisplay:10.34,2013-11-07 20:08:00,
2013-11-07 15:13:00,49.3,41.7,29.86,South,180,4.0,7.0,75,0.00,OVC,OVC,0.00,WeatherDisplay:10.34,2013-11-07 20:13:00,
2013-11-07 15:18:00,49.1,41.5,29.86,SSW,199,3.0,3.0,75,0.00,OVC,OVC,0.00,WeatherDisplay:10.34,2013-11-07 20:18:00,
2013-11-07 15:23:00,48.9,41.0,29.86,WSW,254,4.0,5.0,74,0.00,OVC,OVC,0.00,WeatherDisplay:10.34,2013-11-07 20:23:00,
2013-11-07 15:28:00,48.9,41.0,29.86,NNW,335,4.0,7.0,74,0.00,OVC,OVC,0.00,WeatherDisplay:10.34,2013-11-07 20:28:00,
2013-11-07 15:33:00,48.7,40.5,29.86,West,268,4.0,6.0,73,0.00,OVC,OVC,0.00,WeatherDisplay:10.34,2013-11-07 20:33:00,
2013-11-07 15:38:00,48.7,40.5,29.86,NNE,24,4.0,4.0,73,0.00,OVC,OVC,0.00,WeatherDisplay:10.34,2013-11-07 20:38:00,
2013-11-07 15:43:00,48.6,39.9,29.83,NNW,347,4.0,5.0,72,0.00,OVC,OVC,0.00,WeatherDisplay:10.34,2013-11-07 20:43:00,
2013-11-07 15:48:00,48.6,39.9,29.83,West,277,5.0,9.0,72,0.00,OVC,OVC,0.00,WeatherDisplay:10.34,2013-11-07 20:48:00,
2013-11-07 15:53:00,48.6,39.9,29.83,West,268,4.0,6.0,72,0.00,OVC,OVC,0.00,WeatherDisplay:10.34,2013-11-07 20:53:00,
2013-11-07 15:58:00,48.4,39.4,29.83,NNW,339,4.0,7.0,71,0.00,OVC,OVC,0.00,WeatherDisplay:10.34,2013-11-07 20:58:00,
2013-11-07 16:03:00,48.4,39.0,29.83,North,351,3.0,6.0,70,0.00,OVC,OVC,0.00,WeatherDisplay:10.34,2013-11-07 21:03:00,
2013-11-07 16:08:00,48.2,38.9,29.83,North,351,3.0,5.0,70,0.00,OVC,OVC,0.00,WeatherDisplay:10.34,2013-11-07 21:08:00,
2013-11-07 16:13:00,48.0,38.7,29.86,NNW,339,4.0,7.0,70,0.00,OVC,OVC,0.00,WeatherDisplay:10.34,2013-11-07 21:13:00,
2013-11-07 16:18:00,47.8,38.5,29.86,West,261,4.0,8.0,70,0.00,OVC,OVC,0.00,WeatherDisplay:10.34,2013-11-07 21:18:00,
2013-11-07 16:23:00,47.8,38.5,29.86,WSW,237,3.0,7.0,70,0.00,OVC,OVC,0.00,WeatherDisplay:10.34,2013-11-07 21:23:00,
2013-11-07 16:28:00,47.7,38.4,29.86,WSW,245,0.0,2.0,70,0.00,OVC,OVC,0.00,WeatherDisplay:10.34,2013-11-07 21:28:00,
2013-11-07 16:33:00,47.5,37.8,29.86,NNW,336,3.0,6.0,69,0.00,OVC,OVC,0.00,WeatherDisplay:10.34,2013-11-07 21:33:00,
2013-11-07 16:38:00,47.3,37.6,29.86,North,351,3.0,7.0,69,0.00,OVC,OVC,0.00,WeatherDisplay:10.34,2013-11-07 21:38:00,
2013-11-07 16:43:00,47.3,38.0,29.86,NNW,336,3.0,3.0,70,0.00,OVC,OVC,0.00,WeatherDisplay:10.34,2013-11-07 21:43:00,
2013-11-07 16:49:00,46.9,36.9,29.86,NNW,347,4.0,6.0,68,0.00,OVC,OVC,0.00,WeatherDisplay:10.34,2013-11-07 21:49:00,
2013-11-07 16:54:00,46.8,36.8,29.86,NNE,24,4.0,6.0,68,0.00,OVC,OVC,0.00,WeatherDisplay:10.34,2013-11-07 21:54:00,
2013-11-07 16:59:00,46.8,36.8,29.86,North,7,4.0,7.0,68,0.00,OVC,OVC,0.00,WeatherDisplay:10.34,2013-11-07 21:59:00,
2013-11-07 17:04:00,46.8,36.4,29.86,North,4,3.0,3.0,67,0.00,OVC,OVC,0.00,WeatherDisplay:10.34,2013-11-07 22:04:00,
2013-11-07 17:09:00,46.6,36.2,29.86,North,5,0.0,0.0,67,0.00,OVC,OVC,0.00,WeatherDisplay:10.34,2013-11-07 22:09:00,
2013-11-07 17:14:00,46.2,35.1,29.86,North,351,4.0,7.0,65,0.00,OVC,OVC,0.00,WeatherDisplay:10.34,2013-11-07 22:14:00,
2013-11-07 17:19:00,46.0,34.5,29.86,WNW,297,3.0,5.0,64,0.00,OVC,OVC,0.00,WeatherDisplay:10.34,2013-11-07 22:19:00,
2013-11-07 17:24:00,45.5,33.2,29.86,North,2,0.0,0.0,62,0.00,OVC,OVC,0.00,WeatherDisplay:10.34,2013-11-07 22:24:00,
2013-11-07 17:29:00,45.3,32.7,29.89,SSE,147,0.0,3.0,61,0.00,OVC,OVC,0.00,WeatherDisplay:10.34,2013-11-07 22:29:00,
2013-11-07 17:34:00,45.1,32.9,29.89,North,351,3.0,3.0,62,0.00,OVC,OVC,0.00,WeatherDisplay:10.34,2013-11-07 22:34:00,
2013-11-07 17:39:00,45.0,32.7,29.89,WNW,293,4.0,7.0,62,0.00,OVC,OVC,0.00,WeatherDisplay:10.34,2013-11-07 22:39:00,
2013-11-07 17:44:00,44.6,32.0,29.89,WSW,243,3.0,3.0,61,0.00,OVC,OVC,0.00,WeatherDisplay:10.34,2013-11-07 22:44:00,
2013-11-07 17:49:00,44.6,32.4,29.89,WSW,243,0.0,0.0,62,0.00,OVC,OVC,0.00,WeatherDisplay:10.34,2013-11-07 22:49:00,
2013-11-07 17:54:00,44.6,32.8,29.89,WSW,243,0.0,2.0,63,0.00,OVC,OVC,0.00,WeatherDisplay:10.34,2013-11-07 22:54:00,
2013-11-07 17:59:00,44.2,32.0,29.89,SSW,210,4.0,5.0,62,0.00,OVC,OVC,0.00,WeatherDisplay:10.34,2013-11-07 22:59:00,
2013-11-07 18:04:00,44.2,31.6,29.89,SW,215,4.0,6.0,61,0.00,OVC,OVC,0.00,WeatherDisplay:10.34,2013-11-07 23:04:00,
2013-11-07 18:09:00,43.9,31.3,29.89,NW,314,4.0,6.0,61,0.00,CLR,CLR,0.00,WeatherDisplay:10.34,2013-11-07 23:09:00,
2013-11-07 18:14:00,43.9,32.1,29.89,North,8,3.0,5.0,63,0.00,CLR,CLR,0.00,WeatherDisplay:10.34,2013-11-07 23:14:00,
2013-11-07 18:19:00,43.7,31.5,29.89,West,263,3.0,3.0,62,0.00,CLR,CLR,0.00,WeatherDisplay:10.34,2013-11-07 23:19:00,
2013-11-07 18:24:00,43.5,31.8,29.89,West,263,0.0,3.0,63,0.00,CLR,CLR,0.00,WeatherDisplay:10.34,2013-11-07 23:24:00,
2013-11-07 18:29:00,43.2,31.0,29.92,West,265,0.0,0.0,62,0.00,CLR,CLR,0.00,WeatherDisplay:10.34,2013-11-07 23:29:00,
2013-11-07 18:34:00,43.0,30.4,29.92,North,351,4.0,5.0,61,0.00,CLR,CLR,0.00,WeatherDisplay:10.34,2013-11-07 23:34:00,
2013-11-07 18:39:00,42.6,28.9,29.92,North,351,3.0,8.0,58,0.00,CLR,CLR,0.00,WeatherDisplay:10.34,2013-11-07 23:39:00,
2013-11-07 18:44:00,42.4,27.0,29.93,NNW,345,4.0,6.0,54,0.00,CLR,CLR,0.00,WeatherDisplay:10.34,2013-11-07 23:44:00,
2013-11-07 18:49:00,42.3,26.3,29.93,West,260,5.0,7.0,53,0.00,CLR,CLR,0.00,WeatherDisplay:10.34,2013-11-07 23:49:00,
2013-11-07 18:54:00,41.9,25.5,29.93,NNE,23,5.0,6.0,52,0.00,CLR,CLR,0.00,WeatherDisplay:10.34,2013-11-07 23:54:00,
2013-11-07 18:59:00,41.7,24.9,29.93,North,351,4.0,7.0,51,0.00,CLR,CLR,0.00,WeatherDisplay:10.34,2013-11-07 23:59:00,
2013-11-07 19:04:00,41.5,25.2,29.93,North,0,4.0,5.0,52,0.00,CLR,CLR,0.00,WeatherDisplay:10.34,2013-11-08 00:04:00,
2013-11-07 19:09:00,41.2,25.3,29.93,North,1,3.0,6.0,53,0.00,SCT,SCT,0.00,WeatherDisplay:10.34,2013-11-08 00:09:00,
2013-11-07 19:14:00,41.2,24.4,29.93,North,2,4.0,7.0,51,0.00,SCT,SCT,0.00,WeatherDisplay:10.34,2013-11-08 00:14:00,
2013-11-07 19:19:00,41.0,24.2,29.93,NNW,337,4.0,4.0,51,0.00,SCT,SCT,0.00,WeatherDisplay:10.34,2013-11-08 00:19:00,
2013-11-07 19:24:00,41.0,24.2,29.93,WSW,247,6.0,7.0,51,0.00,SCT,SCT,0.00,WeatherDisplay:10.34,2013-11-08 00:24:00,
2013-11-07 19:29:00,41.0,23.8,29.93,ENE,76,4.0,7.0,50,0.00,SCT,SCT,0.00,WeatherDisplay:10.34,2013-11-08 00:29:00,
2013-11-07 19:34:00,40.8,23.6,29.93,NNE,13,5.0,6.0,50,0.00,SCT,SCT,0.00,WeatherDisplay:10.34,2013-11-08 00:34:00,
2013-11-07 19:39:00,40.6,23.4,29.93,NNE,17,3.0,6.0,50,0.00,SCT,SCT,0.00,WeatherDisplay:10.34,2013-11-08 00:39:00,
2013-11-07 19:44:00,40.5,23.3,29.93,NNE,33,7.0,14.0,50,0.00,SCT,SCT,0.00,WeatherDisplay:10.34,2013-11-08 00:44:00,
2013-11-07 19:49:00,40.3,22.6,29.93,East,82,3.0,3.0,49,0.00,SCT,SCT,0.00,WeatherDisplay:10.34,2013-11-08 00:49:00,
2013-11-07 19:54:00,40.3,23.1,29.93,NNW,328,0.0,6.0,50,0.00,SCT,SCT,0.00,WeatherDisplay:10.34,2013-11-08 00:54:00,
2013-11-07 19:59:00,40.3,23.1,29.93,NNW,328,0.0,0.0,50,0.00,SCT,SCT,0.00,WeatherDisplay:10.34,2013-11-08 00:59:00,
2013-11-07 20:04:00,40.3,23.1,29.93,NNE,31,3.0,3.0,50,0.00,SCT,SCT,0.00,WeatherDisplay:10.34,2013-11-08 01:04:00,
2013-11-07 20:09:00,40.3,23.6,29.93,NNE,31,3.0,5.0,51,0.00,FEW,FEW,0.00,WeatherDisplay:10.34,2013-11-08 01:09:00,
2013-11-07 20:14:00,40.3,23.1,29.93,NNE,31,0.0,0.0,50,0.00,FEW,FEW,0.00,WeatherDisplay:10.34,2013-11-08 01:14:00,
2013-11-07 20:19:00,40.1,22.9,29.93,NNE,15,0.0,3.0,50,0.00,FEW,FEW,0.00,WeatherDisplay:10.34,2013-11-08 01:19:00,
2013-11-07 20:24:00,39.7,23.1,29.93,NNE,32,3.0,3.0,51,0.00,FEW,FEW,0.00,WeatherDisplay:10.34,2013-11-08 01:24:00,
2013-11-07 20:29:00,39.4,22.7,29.93,NNW,347,6.0,9.0,51,0.00,FEW,FEW,0.00,WeatherDisplay:10.34,2013-11-08 01:29:00,
2013-11-07 20:34:00,39.4,22.3,29.93,WSW,253,3.0,3.0,50,0.00,FEW,FEW,0.00,WeatherDisplay:10.34,2013-11-08 01:34:00,
2013-11-07 20:39:00,39.2,21.6,29.93,North,1,5.0,6.0,49,0.00,FEW,FEW,0.00,WeatherDisplay:10.34,2013-11-08 01:39:00,
2013-11-07 20:44:00,39.2,21.6,29.93,NNE,15,0.0,7.0,49,0.00,FEW,FEW,0.00,WeatherDisplay:10.34,2013-11-08 01:44:00,
2013-11-07 20:49:00,39.4,21.8,29.93,North,351,3.0,3.0,49,0.00,FEW,FEW,0.00,WeatherDisplay:10.34,2013-11-08 01:49:00,
2013-11-07 20:54:00,39.4,21.8,29.93,WSW,248,4.0,4.0,49,0.00,FEW,FEW,0.00,WeatherDisplay:10.34,2013-11-08 01:54:00,
2013-11-07 20:59:00,39.2,21.6,29.93,NNW,335,4.0,5.0,49,0.00,FEW,FEW,0.00,WeatherDisplay:10.34,2013-11-08 01:59:00,
2013-11-07 21:04:00,39.2,21.1,29.93,NNW,347,4.0,5.0,48,0.00,FEW,FEW,0.00,WeatherDisplay:10.34,2013-11-08 02:04:00,
2013-11-07 21:09:00,39.2,21.1,29.93,NNW,342,4.0,7.0,48,0.00,BKN,BKN,0.00,WeatherDisplay:10.34,2013-11-08 02:09:00,
2013-11-07 21:14:00,39.2,21.1,29.93,NNW,347,3.0,9.0,48,0.00,BKN,BKN,0.00,WeatherDisplay:10.34,2013-11-08 02:14:00,
2013-11-07 21:19:00,39.4,21.3,29.93,North,4,3.0,6.0,48,0.00,BKN,BKN,0.00,WeatherDisplay:10.34,2013-11-08 02:19:00,
2013-11-07 21:24:00,39.0,21.0,29.93,NW,318,4.0,7.0,48,0.00,BKN,BKN,0.00,WeatherDisplay:10.34,2013-11-08 02:24:00,
2013-11-07 21:29:00,38.8,19.8,29.93,ENE,57,3.0,3.0,46,0.00,BKN,BKN,0.00,WeatherDisplay:10.34,2013-11-08 02:29:00,
2013-11-07 21:34:00,38.8,20.8,29.93,North,9,4.0,8.0,48,0.00,BKN,BKN,0.00,WeatherDisplay:10.34,2013-11-08 02:34:00,
2013-11-07 21:39:00,38.8,19.8,29.93,North,3,3.0,6.0,46,0.00,BKN,BKN,0.00,WeatherDisplay:10.34,2013-11-08 02:39:00,
2013-11-07 21:44:00,38.7,19.6,29.93,North,2,0.0,3.0,46,0.00,BKN,BKN,0.00,WeatherDisplay:10.34,2013-11-08 02:44:00,
2013-11-07 21:49:00,38.7,20.1,29.93,North,8,0.0,0.0,47,0.00,BKN,BKN,0.00,WeatherDisplay:10.34,2013-11-08 02:49:00,
2013-11-07 21:54:00,38.7,20.6,29.93,North,8,0.0,0.0,48,0.00,BKN,BKN,0.00,WeatherDisplay:10.34,2013-11-08 02:54:00,
2013-11-07 21:59:00,38.7,20.1,29.93,North,9,0.0,0.0,47,0.00,BKN,BKN,0.00,WeatherDisplay:10.34,2013-11-08 02:59:00,
2013-11-07 22:04:00,38.7,20.6,29.93,West,278,0.0,3.0,48,0.00,BKN,BKN,0.00,WeatherDisplay:10.34,2013-11-08 03:04:00,
2013-11-07 22:09:00,38.7,21.1,29.93,West,277,0.0,0.0,49,0.00,OVC,OVC,0.00,WeatherDisplay:10.34,2013-11-08 03:09:00,
2013-11-07 22:14:00,38.3,20.8,29.93,WNW,283,0.0,3.0,49,0.00,OVC,OVC,0.00,WeatherDisplay:10.34,2013-11-08 03:14:00,
2013-11-07 22:19:00,37.8,20.8,29.93,WNW,293,0.0,2.0,50,0.00,OVC,OVC,0.00,WeatherDisplay:10.34,2013-11-08 03:19:00,
2013-11-07 22:24:00,37.8,20.3,29.93,North,351,3.0,5.0,49,0.00,OVC,OVC,0.00,WeatherDisplay:10.34,2013-11-08 03:24:00,
2013-11-07 22:29:00,37.8,19.3,29.93,WNW,292,3.0,7.0,47,0.00,OVC,OVC,0.00,WeatherDisplay:10.34,2013-11-08 03:29:00,
2013-11-07 22:34:00,37.9,19.0,29.93,NNE,22,6.0,8.0,46,0.00,OVC,OVC,0.00,WeatherDisplay:10.34,2013-11-08 03:34:00,
2013-11-07 22:39:00,37.9,19.0,29.93,NNE,14,4.0,7.0,46,0.00,OVC,OVC,0.00,WeatherDisplay:10.34,2013-11-08 03:39:00,
2013-11-07 22:45:00,38.1,19.6,29.93,West,275,3.0,5.0,47,0.00,OVC,OVC,0.00,WeatherDisplay:10.34,2013-11-08 03:45:00,
2013-11-07 22:50:00,38.5,19.5,29.93,WNW,282,3.0,3.0,46,0.00,OVC,OVC,0.00,WeatherDisplay:10.34,2013-11-08 03:50:00,
2013-11-07 22:55:00,38.3,19.3,29.93,NNW,345,4.0,6.0,46,0.00,OVC,OVC,0.00,WeatherDisplay:10.34,2013-11-08 03:55:00,
2013-11-07 23:00:00,38.3,18.8,29.93,North,4,4.0,8.0,45,0.00,OVC,OVC,0.00,WeatherDisplay:10.34,2013-11-08 04:00:00,
2013-11-07 23:05:00,38.3,18.8,29.93,North,7,0.0,3.0,45,0.00,OVC,OVC,0.00,WeatherDisplay:10.34,2013-11-08 04:05:00,
2013-11-07 23:10:00,38.3,18.3,29.93,NNW,346,3.0,3.0,44,0.00,OVC,OVC,0.00,WeatherDisplay:10.34,2013-11-08 04:10:00,
2013-11-07 23:15:00,38.3,18.3,29.93,NNE,20,3.0,5.0,44,0.00,OVC,OVC,0.00,WeatherDisplay:10.34,2013-11-08 04:15:00,
2013-11-07 23:20:00,38.1,18.1,29.93,North,10,4.0,6.0,44,0.00,OVC,OVC,0.00,WeatherDisplay:10.34,2013-11-08 04:20:00,
2013-11-07 23:25:00,37.9,17.9,29.93,NNW,337,5.0,7.0,44,0.00,OVC,OVC,0.00,WeatherDisplay:10.34,2013-11-08 04:25:00,
2013-11-07 23:30:00,37.9,17.9,29.93,NNE,32,3.0,3.0,44,0.00,OVC,OVC,0.00,WeatherDisplay:10.34,2013-11-08 04:30:00,
2013-11-07 23:35:00,37.9,18.5,29.93,NE,36,3.0,3.0,45,0.00,OVC,OVC,0.00,WeatherDisplay:10.34,2013-11-08 04:35:00,
2013-11-07 23:40:00,37.9,18.5,29.93,SW,221,3.0,6.0,45,0.00,OVC,OVC,0.00,WeatherDisplay:10.34,2013-11-08 04:40:00,
2013-11-07 23:45:00,37.9,17.9,29.93,SW,221,4.0,7.0,44,0.00,OVC,OVC,0.00,WeatherDisplay:10.34,2013-11-08 04:45:00,
2013-11-07 23:50:00,37.8,17.8,29.93,NNE,30,4.0,6.0,44,0.00,OVC,OVC,0.00,WeatherDisplay:10.34,2013-11-08 04:50:00,
2013-11-07 23:55:00,37.6,17.1,29.93,North,10,4.0,7.0,43,0.00,OVC,OVC,0.00,WeatherDisplay:10.34,2013-11-08 04:55:00,